Location: Brad
(46.1333°N, 22.7833°E)
Time: 11:40:14
(UTC+00:00)

Cosmos 1536 Rocket - Pass Details

Date: 03 February 2023
Orbit: 604 x 631 km, 82.5° (Epoch: 01 April)

Event Time Altitude Azimuth Distance (km) Brightness Sun altitude
Rises 16:39:51 0° 200° (SSW) 2,845 7.4 -11.3°
Reaches altitude 10° 16:42:06 10° 206° (SSW) 1,947 6.7 -11.7°
Maximum altitude 16:46:18 51° 283° (WNW) 771 4.5 -12.4°
Drops below altitude 10° 16:50:33 10° 359° (N) 1,971 6.0 -13.1°
Sets 16:52:50 0° 5° (N) 2,884 6.8 -13.5°
